Regional Weather Roundup
Issued by NWS

Home | Current Version | Previous Version | Text Only | Print | Product List | Glossary Off
Versions: 1 2 3 4 5 6 7 8 9 10 11 12 13 14 15 16 17 18 19 20 21 22 23 24 25 26 27 28 29 30 31 32 33 34 35 36 37 38 39 40 41 42 43 44 45 46 47 48 49 50

321
ASUS43 KMKX 252000
RWRWI

WISCONSIN REGIONAL WEATHER ROUNDUP
NATIONAL WEATHER SERVICE MILWAUKEE/SULLIVAN WI
300 PM CDT WED MAY 25 2016

NOTE: "FAIR" INDICATES FEW OR NO CLOUDS BELOW 12,000 FEET WITH NO
SIGNIFICANT WEATHER AND/OR OBSTRUCTIONS TO VISIBILITY.

WIZ001-002-006>008-014>016-023>028-252100-
NORTHWEST WISCONSIN

CITY           SKY/WX    TMP DP  RH WIND       PRES   REMARKS
SUPERIOR ARPT  CLOUDY    45  45  99 E16G26    29.96F FOG
ASHLAND        CLOUDY    55  50  83 N14       29.96F
HAYWARD        RAIN      72  58  61 E8        29.87F
SIREN          LGT RAIN  63  61  94 N5        29.89F
CUMBERLAND     LGT RAIN  68  63  83 N3        29.87F
RICE LAKE      DRIZZLE   73  63  69 SE5       29.87F
CHETEK         PTSUNNY   73  67  79 CALM      29.85F
LADYSMITH      CLOUDY    79  59  49 E14G21    29.88F HX  80
EAU CLAIRE     TSTM      66  64  94 E7        29.85S FOG
MENOMONIE      DRIZZLE   73  67  83 SW3       29.85F
NEW RICHMOND   PTSUNNY   67  65  91 E3        29.87F
OSCEOLA        CLOUDY    66  66 100 NE6       29.89F
$$

WIZ003>005-009-010-017-018-252100-
NORTH CENTRAL WISCONSIN

CITY           SKY/WX    TMP DP  RH WIND       PRES   REMARKS
MANITOWISH WTR NOT AVBL
ARBOR VITAE    CLOUDY    77  54  44 E12G20    29.94F
WOODRUFF       CLOUDY    77  54  44 E12G20    29.94F
RHINELANDER    CLOUDY    77  56  48 E14       29.95F
EAGLE RIVER      N/A     76  50  39 E13       29.97F
LAND O LAKES   MOSUNNY   75  53  45 E9        30.00F
PHILLIPS       CLOUDY    76  59  56 E9G16     29.92F
TOMAHAWK       MOSUNNY   75  58  55 E8        29.94F
MEDFORD        CLOUDY    74  60  60 E9G18     29.89F
MERRILL        CLOUDY    77  60  56 E13G21    29.94F
$$

WIZ029-030-035-036-043>047-252100-
CENTRAL WISCONSIN

CITY           SKY/WX    TMP DP  RH WIND       PRES   REMARKS
WAUSAU         MOSUNNY   77  59  53 E16G23    29.90F
MOSINEE        SUNNY     73  61  64 E12G18    29.92F
MARSHFIELD     CLOUDY    74  61  63 SE10      29.88F
STEVENS POINT  PTSUNNY   74  58  57 E15       29.93F
WAUPACA        PTSUNNY   79  60  52 E12       29.95F HX  80
WAUTOMA        CLOUDY    77  62  59 E16G24    29.88F
WISC RAPIDS    CLOUDY    77  59  53 E17       29.89F
CAMP DOUGLAS   TSTM      75  72  88 S10       29.87S
$$

WIZ011>013-019>022-031-037>040-048>050-252100-
NORTHEAST WISCONSIN

CITY           SKY/WX    TMP DP  RH WIND       PRES   REMARKS
ANTIGO         SUNNY     76  61  59 SE17G24   29.96F
SHAWANO        MOSUNNY   76  59  55 E10       29.97F
OCONTO         SUNNY     68  58  70 E10G17    30.00F
STURGEON BAY   NOT AVBL
GREEN BAY      MOSUNNY   70  59  68 NE14      29.97F
MANITOWOC      NOT AVBL
APPLETON       PTSUNNY   75  55  50 E13G18    29.93F
CLINTONVILLE   MOSUNNY   73  57  56 E14       29.95F
OSHKOSH        CLOUDY    76  59  55 E15G22    29.92F
$$

WIZ032>034-041-042-053>061-252100-
SOUTHWEST WISCONSIN

CITY           SKY/WX    TMP DP  RH WIND       PRES   REMARKS
LA CROSSE      LGT RAIN  71  67  87 CALM      29.84F
SPARTA         TSTM      73  68  84 SE3       29.87F
VIROQUA        CLOUDY    71  65  83 SE7       29.89F
BOSCOBEL       CLOUDY    87  61  41 S12G23    29.84F HX  87
PRAIRIE DU CHI MOSUNNY   80  60  50 S8        29.85S HX  81
PLATTEVILLE    PTSUNNY   85  62  46 S17G23    29.88F HX  85
$$

WIZ056-057-062-063-064-067-068-252100-
SOUTH CENTRAL WISCONSIN

CITY           SKY/WX    TMP DP  RH WIND       PRES   REMARKS
REEDSBURG      CLOUDY    82  64  55 S12G17    29.86F HX  83
BARABOO/DELLS  RAIN      81  61  51 S10       29.88F HX  82
LONE ROCK      NOT AVBL
MINERAL POINT  MOSUNNY   86  55  35 S16G25    29.88F HX  84
MADISON        CLOUDY    83  60  45 S15G26    29.87F THUNDER HX  83
MIDDLETON      CLOUDY    84  60  44 S12       29.89F HX  84
WATERTOWN      CLOUDY    83  65  55 SE13G18   29.91S HX  84
MONROE         CLOUDY    82  57  42 S13G23    29.90F HX  82
JANESVILLE     PTSUNNY   86  59  39 SE15G22   29.90F HX  85
$$

WIZ051-052-058>065-066-070>072-252100-
SOUTHEAST WISCONSIN

CITY           SKY/WX    TMP DP  RH WIND       PRES   REMARKS
MILWAUKEE      CLOUDY    57  50  77 NE12      29.97F
WAUKESHA       SUNNY     72  57  60 E12       29.96F
MILWAUKEE/TIMM SUNNY     66  52  59 NE8       29.98S
RACINE         MOSUNNY   67  55  65 NE9       29.97F
BURLINGTON     MOSUNNY   81  62  51 E10       29.93F HX  82
KENOSHA        MOSUNNY   75  61  61 SE14      29.95F
FOND DU LAC    MOSUNNY   80  61  52 E13G22    29.92F HX  81
SHEBOYGAN      MOSUNNY   61  54  77 E15       29.99F
WEST BEND      MOSUNNY   72  59  64 E13       29.96F
JUNEAU         MOSUNNY   81  65  58 E16       29.92F HX  83
$$

LSZ147-162-252100-
LAKE SUPERIOR

STATION/POSITION TIME  TEMP    WIND        PRES    WAVE
                       AIR SEA DIR/SP/G            HT/PER
                 (UTC) (F)     (DEG/KT/KT) (MB)    (FT/S)
W MID LAKE BUOY  1850   40 38   50/ 16/ 17 1017.4F   2/ 4
DEVILS ISLAND    1900   42      50/ 21/ 22 1016.8F
SAXON HARBOR     1900   47      20/  4/  6 1014.9F
$$

LMZ867-665-643>646-252100-
LAKE MICHIGAN

STATION/POSITION TIME  TEMP    WIND        PRES    WAVE
                       AIR SEA DIR/SP/G            HT/PER
                 (UTC) (F)     (DEG/KT/KT) (MB)    (FT/S)
CHAMBERS ISLAND  1900   56      20/ 12/ 14 1017.3F
N MID LAKE BUOY  1850   49 45   20/ 10/ 12 1017.2F   0
NORTHPORT PIER   1900   60      70/  6/  9 1017.6F
SISTER BAY       1820   66      20/  8/ 11   N/A
ALGOMA LAKESHORE 1917           60/ 19/ 25   N/A
KEWAUNEE LAKESHO 1900   51      30/  5/ 11 1016.3F
SHEBOYGAN LAKESH 1900   49      20/ 12/ 13 1016.6F
PORT WASHINGTON  1900   53      40/ 13/ 17 1016.6
S MID LAKE BUOY  1850   59 53  140/  4/  4 1015.0F   0
KENOSHA   LAKESH 1900   53      20/ 10/ 13 1014.6F
$$

TC  - TEMPERATURE IN CELSIUS
VSB - VISIBILITY IN STATUTE MILES
WCI - WIND CHILL INDEX
HX  - HEAT INDEX





USA.gov is the U.S. government's official web portal to all federal, state and local government web resources and services.